OBJECT A, 68416

Orbit data source: Space-Track

You're viewing an Uncataloged Satellite

Recently launched and/or uncataloged satellites may have evolving metadata. Metadata may include but not limited to: Owner, Maufacturer, Bus, Motor, and Mission.

OBJECT A, 68416 is a satellite in SSO that was launched on Mon, 30 Mar 2026 UTC via an FALCON 9 launch vehicle from the Air Force Western Test Range (AFWTR). Unknown objects in Earth's orbit typically refer to objects detected orbiting the Earth but have not yet been identified or cataloged. These objects could be anything from previously untracked satellites, spent rocket stages, debris from satellite collisions, or even natural meteoroids temporarily captured by Earth's gravity.

Loading next visibility...
Identifier
68416, 2026-067A
Orbit
SSO
Country
Flag of TBDTBD
Related business
None
Manufacturer
Unknown
Mission
Operational spacecraft
Bus & Motor
Unknown
Mass
Unknown
Launch date (UTC)
2026-03-30 (1 month ago)
Launch vehicle
FALCON 9
Launch site
Air Force Western Test Range (AFWTR)
Object type
Unknown
Shape & HBR
Unknown shape, 1.1 m
Radar Cross Section
RCS unknown

Expand to show TLE details & history
Last TLE update: 10 hours ago

TLE from 10 hours ago
0 OBJECT A
1 68416U 26067A   26127.12311827  .00005673  00000-0  27461-3 0  9993
2 68416  97.4524  86.2405 0004030  74.3340 285.8339 15.18960881  5719
Epoch: 2026-05-07T02:57Z
TLE epoch observation values (Epoch: 2026-05-07T02:57:17.418Z)
Latitude
-0.00001°
Longitude
176.94415°
Altitude
511.311 km
Speed
7.609 km/s
True Right ascension
05h 44m 57s
True Declination
0° 00' 00"
Sunlit
Object was in daylight at epoch
Visualization orbit readout
Latitude
Unknown
Longitude
Unknown
Altitude
Unknown
Speed
Unknown
Apparent Right ascension
Unknown
Apparent Declination
Unknown
Sunlit
N/A
Visualization observer readout
Local Sidereal Time
21:02:20
Azimuth
Unknown
Elevation
Unknown
Doppler factor
Unknown
Orbital elements
Apogee altitude
508.723 km
Perigee altitude
503.175 km
Semi-major axis
6,884.086 km
Eccentricity
0.0004
Inclination
97.4524°
RAAN
86.2405°
Arg. of periapsis
74.334°
True anomaly
285.78947°
Mean anomaly
285.8339°
Eccentric anomaly
285.81168°
Mean motion
3.79991 °/min
Orbital period
94.74 mins
BSTAR
0.00027461
Loading maneuver chart data...
Computing Atmospheric mass density...
Loading historical data...
Loading historical data...
Loading historical data...
Loading historical data...
Loading historical data...
Loading historical data...
Loading historical data...

Documentation

Showing up to 5 results
|